Total_Precipitation_Accumulation
2.03 2.16 2.30 2.40 2.31 2.10 2.01 1.98 1.95 1.77 1.56 1.44 1.28 1.11 1.22 1.33 1.52 1.36 1.22 1.21 1.02 0.84 0.77 0.84 0.96 1.00 1.14 1.27 1.50 1.83 2.25 2.45 2.54 2.33 2.05 1.93 1.88 1.77
1.84 1.97 2.00 2.06 2.25 2.21 2.02 1.99 1.91 1.80 1.66 1.47 1.37 1.23 1.41 1.33 1.45 1.30 1.30 1.36 1.07 0.94 0.86 0.82 0.83 0.77 0.76 0.80 0.83 0.99 1.38 1.52 1.69 1.80 1.77 1.65 1.64 1.62
1.45 1.57 1.73 1.99 2.29 2.30 2.24 2.11 1.98 1.85 1.63 1.48 1.27 1.20 1.51 1.62 1.52 1.41 1.37 1.32 1.08 0.98 0.90 0.82 0.80 0.75 0.70 0.64 0.65 0.70 0.84 0.96 1.06 1.15 1.30 1.37 1.47 1.52
1.22 1.35 1.53 1.81 2.16 2.37 2.44 2.32 2.16 2.01 1.88 1.73 1.40 1.17 1.29 1.63 1.77 1.70 1.47 1.29 1.15 1.07 0.95 0.85 0.79 0.73 0.68 0.66 0.65 0.65 0.66 0.71 0.84 0.90 0.95 1.09 1.30 1.47
1.20 1.25 1.31 1.50 1.70 1.91 2.09 2.21 2.20 2.17 2.15 1.91 1.60 1.34 1.27 1.40 1.66 1.68 1.60 1.55 1.32 1.24 1.24 1.12 0.98 0.88 0.78 0.69 0.68 0.65 0.62 0.61 0.65 0.76 0.83 0.89 1.02 1.19
0.98 1.08 1.17 1.22 1.37 1.51 1.62 1.82 2.03 2.27 2.35 2.20 1.92 1.60 1.48 1.37 1.47 1.63 1.70 1.66 1.57 1.38 1.33 1.22 1.20 1.14 1.02 0.86 0.73 0.67 0.67 0.70 0.70 0.70 0.76 0.82 0.85 0.92
0.89 0.90 0.97 0.99 1.05 1.23 1.28 1.50 1.83 2.10 2.21 2.28 2.15 1.85 1.58 1.40 1.20 1.30 1.56 1.78 1.80 1.71 1.70 1.45 1.31 1.17 1.09 1.05 0.97 0.85 0.76 0.72 0.72 0.73 0.78 0.83 0.90 0.95
0.88 0.88 0.89 0.84 0.82 0.89 1.02 1.15 1.45 1.67 1.81 1.89 1.91 1.75 1.53 1.40 1.35 1.31 1.39 1.53 1.59 1.49 1.54 1.61 1.54 1.38 1.28 1.15 1.17 1.20 1.12 1.00 0.92 0.89 0.89 0.90 0.97 1.05
0.91 0.94 0.90 0.84 0.89 0.90 0.92 0.93 1.00 1.18 1.39 1.60 1.63 1.53 1.59 1.50 1.41 1.31 1.32 1.34 1.33 1.44 1.51 1.59 1.57 1.46 1.38 1.36 1.39 1.29 1.23 1.14 1.06 1.01 1.00 0.99 0.97 0.99
0.89 0.84 0.91 0.92 0.94 1.01 0.94 1.01 0.97 0.95 1.04 1.09 1.22 1.43 1.57 1.74 1.71 1.61 1.61 1.55 1.46 1.56 1.58 1.53 1.44 1.36 1.27 1.25 1.30 1.18 1.10 1.05 1.03 1.01 0.98 0.96 0.93 0.93
0.87 0.87 0.94 0.98 1.11 1.16 1.07 1.12 1.08 1.05 1.02 1.12 1.22 1.33 1.41 1.53 1.68 1.72 1.68 1.64 1.50 1.43 1.44 1.39 1.29 1.30 1.30 1.19 1.11 1.11 1.01 0.97 0.94 0.92 0.92 0.91 0.94 1.02
1.00 0.99 1.18 1.13 1.11 1.06 1.04 1.18 1.15 1.01 0.94 0.98 1.03 1.12 1.16 1.25 1.38 1.43 1.55 1.62 1.53 1.38 1.21 1.20 1.20 1.24 1.28 1.17 1.06 1.00 0.96 0.97 0.93 0.89 0.88 0.91 1.00 1.03
1.10 1.06 1.00 1.13 1.07 0.99 0.99 1.04 1.18 1.07 1.00 1.04 1.04 1.04 1.06 1.10 1.14 1.20 1.32 1.45 1.50 1.34 1.18 1.22 1.21 1.19 1.10 0.97 0.97 0.95 0.91 0.90 0.91 0.90 0.94 0.98 1.04 1.03
1.09 0.99 0.89 1.12 1.08 0.98 0.90 0.93 1.07 1.14 1.14 1.18 1.16 1.07 0.99 0.96 0.95 1.02 1.11 1.22 1.31 1.30 1.27 1.26 1.23 1.18 1.14 1.01 0.90 0.89 0.91 0.93 0.94 0.90 0.87 1.03 1.11 1.18
0.95 0.96 0.98 1.01 0.93 0.89 0.98 1.01 1.04 1.06 1.15 1.21 1.09 0.94 0.87 0.86 0.92 1.04 1.15 1.23 1.31 1.27 1.21 1.21 1.23 1.28 1.28 1.15 1.01 0.94 0.95 0.93 0.92 0.89 0.86 0.88 0.94 1.09
0.77 0.80 0.83 0.80 0.80 0.84 0.90 1.00 1.05 1.10 1.12 1.06 0.95 0.82 0.83 0.88 0.91 0.94 1.08 1.20 1.34 1.33 1.29 1.34 1.36 1.38 1.40 1.24 1.14 1.06 1.03 0.99 0.96 0.97 0.96 0.91 0.88 0.92
0.87 0.78 0.79 0.79 0.77 0.77 0.82 0.86 0.90 0.91 0.94 0.92 0.89 0.87 0.86 0.89 0.90 0.89 0.98 1.05 1.06 1.04 1.08 1.18 1.36 1.50 1.48 1.43 1.36 1.19 1.14 1.13 1.14 1.18 1.17 1.07 0.92 0.86
1.22 1.17 1.15 1.07 0.97 0.87 0.79 0.74 0.73 0.75 0.79 0.84 0.85 0.83 0.83 0.88 0.93 0.94 0.98 1.04 1.02 0.92 0.88 0.93 1.14 1.43 1.58 1.51 1.36 1.24 1.21 1.15 1.15 1.30 1.32 1.23 1.02 0.90
1.24 1.23 1.20 1.05 0.92 0.83 0.73 0.63 0.59 0.61 0.69 0.69 0.72 0.75 0.76 0.81 0.88 0.91 0.92 0.97 1.00 0.95 0.90 0.91 1.02 1.19 1.35 1.27 1.11 1.02 1.09 1.15 1.23 1.31 1.35 1.26 1.06 0.95
0.91 0.92 0.85 0.79 0.72 0.60 0.55 0.53 0.50 0.54 0.63 0.65 0.65 0.66 0.68 0.74 0.77 0.84 0.87 0.87 0.93 0.93 0.90 0.86 0.86 0.93 1.05 1.03 0.95 0.86 0.88 1.02 1.12 1.14 1.15 1.18 1.15 1.20
0.57 0.53 0.48 0.47 0.48 0.45 0.43 0.42 0.43 0.47 0.54 0.61 0.63 0.62 0.62 0.66 0.70 0.75 0.82 0.90 0.90 0.90 0.90 0.81 0.76 0.87 0.98 1.08 1.05 0.82 0.74 0.89 1.01 1.05 1.10 1.23 1.24 1.16
0.33 0.33 0.32 0.32 0.34 0.35 0.37 0.39 0.39 0.42 0.47 0.54 0.58 0.62 0.62 0.61 0.64 0.71 0.76 0.79 0.79 0.77 0.77 0.78 0.82 0.91 0.97 1.03 0.99 0.85 0.78 0.81 1.01 1.23 1.19 1.17 1.14 1.05
0.29 0.29 0.28 0.30 0.33 0.34 0.37 0.41 0.44 0.47 0.48 0.56 0.57 0.59 0.63 0.64 0.65 0.68 0.72 0.72 0.75 0.76 0.76 0.80 0.84 0.91 0.96 0.99 1.03 1.01 0.98 0.93 0.95 1.07 1.11 1.19 1.08 0.88